[[{"header":{"parameterUnit":"m.s-1","parameterCategory":1,"la1":30.2992,"la2":30.254,"lo1":-89.0895,"lo2":-89.0443,"dy":0.0025,"dx":0.0025,"nx":19,"ny":19,"refTime":"2026-03-25T21:00:00:Z","depth":0,"parameterNumber":2,"parameterNumberName":"U-component_of_WINDS"},"data":[0,0,0,1.9584,1.9586,1.9652,1.9653,1.975,1.9751,0,0,0,0,0,0,0,0,0,0,0,1.9573,1.9573,1.9584,1.9586,1.9652,1.9653,1.975,1.9751,0,0,0,0,0,0,0,0,0,0,0,1.9572,1.9573,1.9574,1.9586,1.9652,1.9653,1.975,1.9695,0,0,0,0,0,0,0,0,0,0,1.9629,1.9625,1.9573,1.9574,1.9587,1.9652,1.9653,1.9692,1.9699,1.9726,0,1.9752,0,1.9753,1.9759,1.9759,0,0,0,1.958,1.962,1.9631,1.9575,1.9588,1.9652,1.9621,1.9696,1.9703,1.9734,1.9753,1.9757,1.9755,1.9759,1.976,1.9939,1.994,0,0,1.9577,1.9588,1.9626,1.9636,1.9627,1.9619,1.9623,1.97,1.9721,1.9754,1.9759,1.9757,1.976,1.9761,1.9937,1.9939,0,0,0,1.957,1.9586,1.9595,1.9632,1.9643,1.9621,1.9626,1.9718,1.972,1.976,1.9758,1.9761,1.9762,1.9936,1.9938,2.0006,0,0,0,1.9568,1.9582,1.9594,1.9602,1.9642,1.9681,1.9642,1.9714,1.9723,1.9757,1.9761,1.9763,1.9935,1.9937,2.0001,2.0036,0,0,0,1.9566,1.9582,1.9594,1.9602,1.9631,1.968,1.9686,1.9716,1.9722,1.9759,1.9763,1.9934,1.9937,1.9997,2.0029,2.0088,0,0,0,1.9566,1.9652,1.9596,1.9691,1.9631,1.9722,1.9685,1.9752,1.9792,1.9761,1.9935,1.9938,1.9996,2.0025,2.0084,2.014,2.0164,0,0,1.9681,1.9666,1.9722,1.9673,1.9777,1.971,1.9824,1.9849,1.9841,1.9906,1.9911,2.0003,2.0029,2.0087,2.0295,2.0314,0,0,0,1.9762,1.9802,1.9827,1.9866,1.9888,1.991,1.9916,1.9925,1.9981,1.9877,2.0039,2.0054,2.0088,2.0114,2.013,2.0159,1.995,1.995,1.995,1.9941,1.9928,2.0019,2.0014,2.0053,2.006,2.009,2.0104,2.0077,2.0116,2.0135,2.0264,2.0295,2.0307,2.0337,2.0163,2.0164,2.0164,2.0164,2.0109,2.0164,2.0129,2.0205,2.0191,2.0255,2.0265,2.0245,2.0302,2.0247,2.0276,2.0218,2.0329,2.0355,2.0169,2.0168,2.0168,2.0167,2.0167,2.0225,2.025,2.0261,2.0318,2.0363,2.0355,2.0413,2.0397,2.0383,2.0411,2.0431,2.043,2.0428,2.0422,2.0422,2.0423,2.0423,2.0424,2.0424,2.0342,2.0353,2.0403,2.0436,2.046,2.049,2.0499,2.0523,2.0545,2.0529,2.0529,2.05,2.0342,2.0304,2.0431,2.0429,2.0429,2.0428,2.0427,2.0518,2.0477,2.0555,2.058,2.0618,2.0665,2.0645,2.0695,2.0712,2.0741,2.0707,2.0592,2.0575,2.0562,2.053,2.0708,2.0708,2.0708,2.0708,2.0618,2.0608,2.0686,2.0727,2.0765,2.0756,2.0846,2.0855,2.0857,2.0867,2.0839,2.0795,2.0782,2.0773,2.0755,2.0725,2.0949,2.0949,2.0949,2.0726,2.072,2.08,2.0802,2.0831,2.0857,2.0942,2.099,2.0984,2.0959,2.0875,2.0865,2.0793,2.0771,2.0743,2.0716,2.066,0,0]},{"header":{"parameterUnit":"m.s-1","parameterCategory":1,"la1":30.2992,"la2":30.254,"lo1":-89.0895,"lo2":-89.0443,"dy":0.0025,"dx":0.0025,"nx":19,"ny":19,"refTime":"2026-03-25T21:00:00:Z","depth":0,"parameterNumber":3,"parameterNumberName":"V-component_of_WINDS"},"data":[0,0,0,-0.214,-0.2139,-0.2109,-0.2109,-0.2072,-0.2072,0,0,0,0,0,0,0,0,0,0,0,-0.215,-0.215,-0.214,-0.2139,-0.2109,-0.2109,-0.2072,-0.2072,0,0,0,0,0,0,0,0,0,0,0,-0.215,-0.215,-0.215,-0.2139,-0.211,-0.2109,-0.2072,-0.2094,0,0,0,0,0,0,0,0,0,0,-0.2123,-0.2134,-0.215,-0.215,-0.2139,-0.211,-0.2109,-0.2095,-0.2093,-0.2086,0,-0.2082,0,-0.2076,-0.2069,-0.2069,0,0,0,-0.2137,-0.2136,-0.2127,-0.215,-0.2139,-0.211,-0.2122,-0.2094,-0.2091,-0.2083,-0.2081,-0.208,-0.2076,-0.2069,-0.2069,-0.2042,-0.2042,0,0,-0.2139,-0.2145,-0.2129,-0.2125,-0.2131,-0.2123,-0.2122,-0.2092,-0.209,-0.2081,-0.2079,-0.2075,-0.2069,-0.2069,-0.2042,-0.2042,0,0,0,-0.2145,-0.2146,-0.2138,-0.2127,-0.2121,-0.2123,-0.212,-0.2091,-0.2088,-0.2079,-0.2075,-0.2069,-0.2068,-0.2042,-0.2042,-0.2046,0,0,0,-0.2146,-0.2149,-0.2139,-0.2142,-0.2122,-0.2106,-0.212,-0.209,-0.2087,-0.2075,-0.2069,-0.2068,-0.2042,-0.2042,-0.2046,-0.2046,0,0,0,-0.2151,-0.215,-0.2147,-0.2142,-0.213,-0.2106,-0.2102,-0.2089,-0.2084,-0.2069,-0.2068,-0.2042,-0.2042,-0.2046,-0.2046,-0.2042,0,0,0,-0.2158,-0.2149,-0.2147,-0.2134,-0.213,-0.211,-0.2102,-0.2086,-0.2073,-0.2069,-0.2042,-0.2042,-0.2046,-0.2046,-0.2042,-0.2039,-0.2039,0,0,-0.2149,-0.2148,-0.214,-0.2138,-0.212,-0.2114,-0.2096,-0.2078,-0.207,-0.2051,-0.2051,-0.2046,-0.2046,-0.2042,-0.2034,-0.2033,0,0,0,-0.2139,-0.2134,-0.2128,-0.2118,-0.2105,-0.2095,-0.208,-0.2073,-0.2058,-0.2062,-0.2043,-0.2043,-0.204,-0.2038,-0.2038,-0.2035,-0.2041,-0.2041,-0.2041,-0.2133,-0.2126,-0.2114,-0.2104,-0.2094,-0.208,-0.2071,-0.206,-0.2054,-0.205,-0.2044,-0.204,-0.2039,-0.2038,-0.2036,-0.2042,-0.2042,-0.2042,-0.2042,-0.2119,-0.2111,-0.2106,-0.2093,-0.2085,-0.2073,-0.206,-0.2057,-0.2044,-0.2043,-0.204,-0.204,-0.2038,-0.2036,-0.2042,-0.2042,-0.2042,-0.2042,-0.2042,-0.2114,-0.2109,-0.2103,-0.209,-0.208,-0.207,-0.206,-0.2053,-0.2046,-0.2043,-0.2037,-0.2037,-0.2036,-0.2041,-0.2041,-0.2041,-0.2041,-0.2041,-0.2041,-0.2111,-0.2105,-0.2097,-0.2086,-0.208,-0.2071,-0.2059,-0.2052,-0.2043,-0.2039,-0.2039,-0.2034,-0.204,-0.2042,-0.2041,-0.2041,-0.2041,-0.2041,-0.2041,-0.2098,-0.2101,-0.209,-0.2084,-0.2071,-0.2063,-0.2055,-0.2043,-0.2037,-0.2032,-0.2029,-0.2034,-0.2031,-0.2032,-0.2033,-0.203,-0.203,-0.203,-0.203,-0.2094,-0.2093,-0.2081,-0.2073,-0.2064,-0.2057,-0.2045,-0.2036,-0.2027,-0.2023,-0.2023,-0.2024,-0.2025,-0.2022,-0.2022,-0.2023,-0.2018,-0.2018,-0.2018,-0.2087,-0.2085,-0.2076,-0.2069,-0.206,-0.2051,-0.204,-0.203,-0.202,-0.2017,-0.202,-0.202,-0.2023,-0.2024,-0.2019,-0.202,-0.2022,0,0]}]]